contact:dominique.lefevre@mio.osupytheas.fr, maurice.libes@osupytheas.fr, didier.mallarino@osupytheas.fr
Project:EMSO http://www.emso-fr.org/EMSO-France
Depth: 2436.0 m
Title:EMSO Ligure Ouest : Data MII capteur CSTAR
DateTime,Latitude,Longitude,Instrument_Serial,Reference_Counts,Signal_Counts,Corrected_Signal_raw_counts,Calculated_Beam_c_inverse_meters,Internal_thermistor_counts
DateTime,Latitude,Longitude,Instrument_Serial,Reference_Counts,Signal_Counts,Corrected_Signal_raw_counts,Calculated_Beam_c_inverse_meters,Internal_thermistor_counts
2021-06-30T00:01:37,42.805,6.029,CST-1368DR,5436,7567,14938,0.178,551
2021-06-30T00:04:39,42.805,6.029,CST-1368DR,5436,7567,14938,0.178,551
2021-06-30T00:07:40,42.805,6.029,CST-1368DR,5436,7567,14939,0.177,551
2021-06-30T00:10:42,42.805,6.029,CST-1368DR,5436,7567,14939,0.177,551
2021-06-30T00:13:43,42.805,6.029,CST-1368DR,5436,7566,14938,0.178,551
2021-06-30T00:16:45,42.805,6.029,CST-1368DR,5436,7567,14938,0.178,551
2021-06-30T00:19:47,42.805,6.029,CST-1368DR,5436,7566,14938,0.178,551
2021-06-30T00:22:48,42.805,6.029,CST-1368DR,5436,7567,14938,0.178,551
2021-06-30T00:25:50,42.805,6.029,CST-1368DR,5436,7566,14937,0.178,551
2021-06-30T00:28:51,42.805,6.029,CST-1368DR,5436,7567,14939,0.177,551
2021-06-30T00:31:53,42.805,6.029,CST-1368DR,5436,7566,14936,0.178,551
2021-06-30T00:34:54,42.805,6.029,CST-1368DR,5436,7567,14940,0.177,551
2021-06-30T00:37:56,42.805,6.029,CST-1368DR,5436,7565,14936,0.178,551
2021-06-30T00:40:58,42.805,6.029,CST-1368DR,5436,7567,14940,0.177,551
2021-06-30T00:43:59,42.805,6.029,CST-1368DR,5436,7567,14938,0.178,551
2021-06-30T00:47:01,42.805,6.029,CST-1368DR,5436,7567,14940,0.177,551
2021-06-30T00:50:02,42.805,6.029,CST-1368DR,5436,7567,14938,0.178,551
2021-06-30T00:53:04,42.805,6.029,CST-1368DR,5436,7566,14938,0.178,551
2021-06-30T00:56:06,42.805,6.029,CST-1368DR,5435,7566,14940,0.177,551
2021-06-30T00:59:07,42.805,6.029,CST-1368DR,5436,7566,14937,0.178,551
2021-06-30T01:02:09,42.805,6.029,CST-1368DR,5436,7566,14936,0.178,551
2021-06-30T01:05:10,42.805,6.029,CST-1368DR,5436,7567,14939,0.177,551
2021-06-30T01:08:12,42.805,6.029,CST-1368DR,5436,7567,14939,0.177,551
2021-06-30T01:11:13,42.805,6.029,CST-1368DR,5436,7567,14939,0.177,551
2021-06-30T01:14:15,42.805,6.029,CST-1368DR,5436,7566,14936,0.178,551
2021-06-30T01:17:17,42.805,6.029,CST-1368DR,5436,7566,14937,0.178,551
2021-06-30T01:20:18,42.805,6.029,CST-1368DR,5436,7568,14940,0.177,551
2021-06-30T01:23:20,42.805,6.029,CST-1368DR,5436,7566,14938,0.178,551
2021-06-30T01:26:21,42.805,6.029,CST-1368DR,5436,7567,14939,0.177,551
2021-06-30T01:29:23,42.805,6.029,CST-1368DR,5436,7567,14938,0.178,551
2021-06-30T01:32:25,42.805,6.029,CST-1368DR,5436,7567,14939,0.177,551
2021-06-30T01:35:26,42.805,6.029,CST-1368DR,5436,7566,14938,0.178,551
2021-06-30T01:38:28,42.805,6.029,CST-1368DR,5436,7566,14937,0.178,551
2021-06-30T01:41:29,42.805,6.029,CST-1368DR,5436,7567,14939,0.177,551
2021-06-30T01:44:31,42.805,6.029,CST-1368DR,5436,7567,14939,0.177,551
2021-06-30T01:47:32,42.805,6.029,CST-1368DR,5436,7567,14939,0.177,551
2021-06-30T01:50:34,42.805,6.029,CST-1368DR,5436,7567,14938,0.178,551
2021-06-30T01:53:36,42.805,6.029,CST-1368DR,5436,7566,14938,0.178,551
2021-06-30T01:56:37,42.805,6.029,CST-1368DR,5436,7566,14938,0.178,551
2021-06-30T01:59:39,42.805,6.029,CST-1368DR,5436,7566,14937,0.178,551
2021-06-30T02:02:40,42.805,6.029,CST-1368DR,5436,7567,14938,0.178,551
2021-06-30T02:05:42,42.805,6.029,CST-1368DR,5436,7566,14938,0.178,551
2021-06-30T02:08:43,42.805,6.029,CST-1368DR,5436,7565,14936,0.178,551
2021-06-30T02:11:45,42.805,6.029,CST-1368DR,5435,7567,14941,0.177,551
2021-06-30T02:14:47,42.805,6.029,CST-1368DR,5436,7566,14936,0.178,551
2021-06-30T02:17:48,42.805,6.029,CST-1368DR,5436,7566,14937,0.178,551
2021-06-30T02:20:50,42.805,6.029,CST-1368DR,5435,7567,14941,0.177,551
2021-06-30T02:23:51,42.805,6.029,CST-1368DR,5436,7566,14937,0.178,551
2021-06-30T02:26:53,42.805,6.029,CST-1368DR,5435,7565,14937,0.178,551
2021-06-30T02:29:55,42.805,6.029,CST-1368DR,5436,7567,14939,0.177,551
2021-06-30T02:32:56,42.805,6.029,CST-1368DR,5435,7567,14941,0.177,551
2021-06-30T02:35:58,42.805,6.029,CST-1368DR,5435,7567,14941,0.177,551
2021-06-30T02:38:59,42.805,6.029,CST-1368DR,5435,7567,14941,0.177,551
2021-06-30T02:42:01,42.805,6.029,CST-1368DR,5435,7567,14942,0.176,551
2021-06-30T02:45:02,42.805,6.029,CST-1368DR,5435,7556,14920,0.182,551
2021-06-30T02:48:04,42.805,6.029,CST-1368DR,5435,7565,14937,0.178,551
2021-06-30T02:51:06,42.805,6.029,CST-1368DR,5435,7566,14939,0.177,551
2021-06-30T02:54:07,42.805,6.029,CST-1368DR,5435,7566,14939,0.177,551
2021-06-30T02:57:09,42.805,6.029,CST-1368DR,5435,7566,14940,0.177,551
2021-06-30T03:00:10,42.805,6.029,CST-1368DR,5435,7566,14939,0.177,551
2021-06-30T03:03:12,42.805,6.029,CST-1368DR,5435,7566,14939,0.177,551
2021-06-30T03:06:14,42.805,6.029,CST-1368DR,5435,7566,14939,0.177,551
2021-06-30T03:09:15,42.805,6.029,CST-1368DR,5435,7564,14935,0.178,551
2021-06-30T03:12:17,42.805,6.029,CST-1368DR,5435,7565,14937,0.178,551
2021-06-30T03:15:18,42.805,6.029,CST-1368DR,5435,7565,14938,0.178,551
2021-06-30T03:18:20,42.805,6.029,CST-1368DR,5435,7565,14937,0.178,551
2021-06-30T03:21:21,42.805,6.029,CST-1368DR,5435,7566,14939,0.177,551
2021-06-30T03:24:23,42.805,6.029,CST-1368DR,5435,7567,14941,0.177,551
2021-06-30T03:27:25,42.805,6.029,CST-1368DR,5435,7566,14939,0.177,551
2021-06-30T03:30:26,42.805,6.029,CST-1368DR,5435,7564,14936,0.178,551
2021-06-30T03:33:28,42.805,6.029,CST-1368DR,5435,7567,14941,0.177,551
2021-06-30T03:36:29,42.805,6.029,CST-1368DR,5435,7566,14940,0.177,551
2021-06-30T03:39:31,42.805,6.029,CST-1368DR,5435,7566,14940,0.177,551
2021-06-30T03:42:32,42.805,6.029,CST-1368DR,5435,7565,14937,0.178,551
2021-06-30T03:45:34,42.805,6.029,CST-1368DR,5435,7566,14940,0.177,551
2021-06-30T03:48:36,42.805,6.029,CST-1368DR,5435,7566,14939,0.177,550
2021-06-30T03:51:37,42.805,6.029,CST-1368DR,5435,7566,14939,0.177,551
2021-06-30T03:54:39,42.805,6.029,CST-1368DR,5435,7566,14939,0.177,551
2021-06-30T03:57:40,42.805,6.029,CST-1368DR,5435,7567,14941,0.177,551
2021-06-30T04:00:42,42.805,6.029,CST-1368DR,5435,7566,14939,0.177,551
2021-06-30T04:03:44,42.805,6.029,CST-1368DR,5435,7566,14940,0.177,551
2021-06-30T04:06:45,42.805,6.029,CST-1368DR,5435,7565,14937,0.178,551
2021-06-30T04:09:47,42.805,6.029,CST-1368DR,5435,7565,14938,0.178,551
2021-06-30T04:12:48,42.805,6.029,CST-1368DR,5435,7567,14941,0.177,551
2021-06-30T04:15:50,42.805,6.029,CST-1368DR,5435,7565,14938,0.178,551
2021-06-30T04:18:51,42.805,6.029,CST-1368DR,5435,7566,14939,0.177,551
2021-06-30T04:21:53,42.805,6.029,CST-1368DR,5435,7565,14938,0.178,551
2021-06-30T04:24:55,42.805,6.029,CST-1368DR,5435,7567,14941,0.177,551
2021-06-30T04:27:56,42.805,6.029,CST-1368DR,5435,7565,14937,0.178,551
2021-06-30T04:30:58,42.805,6.029,CST-1368DR,5435,7565,14938,0.178,551
2021-06-30T04:33:59,42.805,6.029,CST-1368DR,5435,7566,14939,0.177,551
2021-06-30T04:37:01,42.805,6.029,CST-1368DR,5435,7564,14936,0.178,551
2021-06-30T04:40:02,42.805,6.029,CST-1368DR,5435,7565,14938,0.178,551
2021-06-30T04:43:04,42.805,6.029,CST-1368DR,5435,7565,14937,0.178,551
2021-06-30T04:46:06,42.805,6.029,CST-1368DR,5435,7566,14940,0.177,551
2021-06-30T04:49:07,42.805,6.029,CST-1368DR,5435,7566,14939,0.177,551
2021-06-30T04:52:09,42.805,6.029,CST-1368DR,5435,7566,14940,0.177,551
2021-06-30T04:55:10,42.805,6.029,CST-1368DR,5435,7566,14939,0.177,551
2021-06-30T04:58:12,42.805,6.029,CST-1368DR,5435,7564,14936,0.178,551
2021-06-30T05:01:14,42.805,6.029,CST-1368DR,5435,7565,14938,0.178,551
2021-06-30T05:04:15,42.805,6.029,CST-1368DR,5435,7565,14938,0.178,551
2021-06-30T05:07:17,42.805,6.029,CST-1368DR,5435,7565,14937,0.178,551
2021-06-30T05:10:18,42.805,6.029,CST-1368DR,5435,7565,14938,0.178,551
2021-06-30T05:13:20,42.805,6.029,CST-1368DR,5435,7566,14939,0.177,551
2021-06-30T05:16:21,42.805,6.029,CST-1368DR,5435,7565,14937,0.178,551
2021-06-30T05:19:23,42.805,6.029,CST-1368DR,5435,7566,14939,0.177,551
2021-06-30T05:22:25,42.805,6.029,CST-1368DR,5435,7566,14939,0.177,551
2021-06-30T05:25:26,42.805,6.029,CST-1368DR,5435,7566,14939,0.177,551
2021-06-30T05:28:28,42.805,6.029,CST-1368DR,5435,7565,14938,0.178,551
2021-06-30T05:31:29,42.805,6.029,CST-1368DR,5435,7565,14938,0.178,551
2021-06-30T05:34:31,42.805,6.029,CST-1368DR,5435,7565,14938,0.178,551
2021-06-30T05:37:33,42.805,6.029,CST-1368DR,5435,7565,14937,0.178,551
2021-06-30T05:40:34,42.805,6.029,CST-1368DR,5435,7565,14937,0.178,551
2021-06-30T05:43:36,42.805,6.029,CST-1368DR,5435,7564,14936,0.178,551
2021-06-30T05:46:37,42.805,6.029,CST-1368DR,5435,7565,14938,0.178,551
2021-06-30T05:49:39,42.805,6.029,CST-1368DR,5435,7565,14937,0.178,551
2021-06-30T05:52:40,42.805,6.029,CST-1368DR,5435,7566,14939,0.177,551
2021-06-30T05:55:42,42.805,6.029,CST-1368DR,5435,7565,14938,0.178,551
2021-06-30T05:58:44,42.805,6.029,CST-1368DR,5435,7561,14930,0.180,551
2021-06-30T06:01:45,42.805,6.029,CST-1368DR,5435,7566,14939,0.177,551
2021-06-30T06:04:47,42.805,6.029,CST-1368DR,5435,7565,14938,0.178,551
2021-06-30T06:07:48,42.805,6.029,CST-1368DR,5435,7567,14941,0.177,551
2021-06-30T06:10:50,42.805,6.029,CST-1368DR,5435,7565,14938,0.178,551
2021-06-30T06:13:52,42.805,6.029,CST-1368DR,5435,7565,14938,0.178,551
2021-06-30T06:16:53,42.805,6.029,CST-1368DR,5435,7564,14936,0.178,551
2021-06-30T06:19:55,42.805,6.029,CST-1368DR,5435,7566,14939,0.177,551
2021-06-30T06:22:56,42.805,6.029,CST-1368DR,5435,7564,14935,0.178,551
2021-06-30T06:25:58,42.805,6.029,CST-1368DR,5435,7566,14939,0.177,551
2021-06-30T06:28:59,42.805,6.029,CST-1368DR,5435,7565,14938,0.178,551
2021-06-30T06:32:01,42.805,6.029,CST-1368DR,5435,7566,14939,0.177,551
2021-06-30T06:35:03,42.805,6.029,CST-1368DR,5435,7566,14939,0.177,551
2021-06-30T06:38:04,42.805,6.029,CST-1368DR,5435,7565,14937,0.178,551
2021-06-30T06:41:06,42.805,6.029,CST-1368DR,5435,7566,14939,0.177,551
2021-06-30T06:44:07,42.805,6.029,CST-1368DR,5435,7565,14938,0.178,551
2021-06-30T06:47:09,42.805,6.029,CST-1368DR,5435,7567,14941,0.177,551
2021-06-30T06:50:10,42.805,6.029,CST-1368DR,5435,7564,14936,0.178,551
2021-06-30T06:53:12,42.805,6.029,CST-1368DR,5435,7565,14938,0.178,551
2021-06-30T06:56:14,42.805,6.029,CST-1368DR,5435,7566,14939,0.177,551
2021-06-30T06:59:15,42.805,6.029,CST-1368DR,5435,7565,14938,0.178,551
2021-06-30T07:02:17,42.805,6.029,CST-1368DR,5435,7564,14936,0.178,551
2021-06-30T07:05:18,42.805,6.029,CST-1368DR,5435,7567,14941,0.177,551
2021-06-30T07:08:20,42.805,6.029,CST-1368DR,5435,7567,14941,0.177,551
2021-06-30T07:11:22,42.805,6.029,CST-1368DR,5435,7566,14940,0.177,551
2021-06-30T07:14:23,42.805,6.029,CST-1368DR,5435,7567,14941,0.177,551
2021-06-30T07:17:25,42.805,6.029,CST-1368DR,5435,7566,14939,0.177,551
2021-06-30T07:20:26,42.805,6.029,CST-1368DR,5435,7565,14938,0.178,551
2021-06-30T07:23:28,42.805,6.029,CST-1368DR,5435,7566,14940,0.177,551
2021-06-30T07:26:29,42.805,6.029,CST-1368DR,5435,7567,14941,0.177,551
2021-06-30T07:29:31,42.805,6.029,CST-1368DR,5435,7567,14942,0.176,551
2021-06-30T07:32:33,42.805,6.029,CST-1368DR,5435,7567,14941,0.177,551
2021-06-30T07:35:34,42.805,6.029,CST-1368DR,5435,7567,14941,0.177,551
2021-06-30T07:38:36,42.805,6.029,CST-1368DR,5435,7566,14940,0.177,551
2021-06-30T07:41:37,42.805,6.029,CST-1368DR,5435,7567,14941,0.177,551
2021-06-30T07:44:39,42.805,6.029,CST-1368DR,5435,7567,14941,0.177,551
2021-06-30T07:47:41,42.805,6.029,CST-1368DR,5435,7566,14939,0.177,551
2021-06-30T07:50:42,42.805,6.029,CST-1368DR,5435,7566,14939,0.177,551
2021-06-30T07:53:44,42.805,6.029,CST-1368DR,5435,7567,14942,0.176,551
2021-06-30T07:56:45,42.805,6.029,CST-1368DR,5435,7566,14940,0.177,551
2021-06-30T07:59:47,42.805,6.029,CST-1368DR,5435,7566,14939,0.177,550
2021-06-30T08:02:48,42.805,6.029,CST-1368DR,5435,7567,14942,0.176,551
2021-06-30T08:05:50,42.805,6.029,CST-1368DR,5435,7567,14941,0.177,551
2021-06-30T08:08:52,42.805,6.029,CST-1368DR,5435,7567,14941,0.177,551
2021-06-30T08:11:53,42.805,6.029,CST-1368DR,5435,7565,14938,0.178,551
2021-06-30T08:14:55,42.805,6.029,CST-1368DR,5435,7566,14939,0.177,551
2021-06-30T08:17:56,42.805,6.029,CST-1368DR,5435,7566,14939,0.177,551
2021-06-30T08:20:58,42.805,6.029,CST-1368DR,5435,7567,14942,0.176,551
2021-06-30T08:23:59,42.805,6.029,CST-1368DR,5435,7566,14940,0.177,551
2021-06-30T08:27:01,42.805,6.029,CST-1368DR,5435,7566,14939,0.177,551
2021-06-30T08:30:03,42.805,6.029,CST-1368DR,5435,7566,14940,0.177,551
2021-06-30T08:33:04,42.805,6.029,CST-1368DR,5435,7563,14934,0.179,551
2021-06-30T08:36:06,42.805,6.029,CST-1368DR,5435,7561,14929,0.180,551
2021-06-30T08:39:07,42.805,6.029,CST-1368DR,5435,7565,14937,0.178,551
2021-06-30T08:42:09,42.805,6.029,CST-1368DR,5435,7564,14936,0.178,551
2021-06-30T08:45:11,42.805,6.029,CST-1368DR,5435,7566,14940,0.177,551
2021-06-30T08:48:12,42.805,6.029,CST-1368DR,5435,7565,14938,0.178,551
2021-06-30T08:51:14,42.805,6.029,CST-1368DR,5435,7567,14941,0.177,551
2021-06-30T08:54:15,42.805,6.029,CST-1368DR,5435,7566,14940,0.177,551
2021-06-30T08:57:17,42.805,6.029,CST-1368DR,5435,7565,14938,0.178,551
2021-06-30T09:00:18,42.805,6.029,CST-1368DR,5435,7565,14937,0.178,551
2021-06-30T09:03:20,42.805,6.029,CST-1368DR,5435,7566,14939,0.177,551
2021-06-30T09:06:22,42.805,6.029,CST-1368DR,5435,7565,14937,0.178,551
2021-06-30T09:09:23,42.805,6.029,CST-1368DR,5435,7565,14938,0.178,551
2021-06-30T09:12:25,42.805,6.029,CST-1368DR,5435,7566,14939,0.177,551
2021-06-30T09:15:26,42.805,6.029,CST-1368DR,5435,7565,14937,0.178,551
2021-06-30T09:18:28,42.805,6.029,CST-1368DR,5435,7566,14940,0.177,551
2021-06-30T09:21:30,42.805,6.029,CST-1368DR,5435,7565,14937,0.178,551
2021-06-30T09:24:31,42.805,6.029,CST-1368DR,5434,7565,14939,0.177,551
2021-06-30T09:27:33,42.805,6.029,CST-1368DR,5434,7565,14940,0.177,551
2021-06-30T09:30:34,42.805,6.029,CST-1368DR,5435,7564,14936,0.178,551
2021-06-30T09:33:36,42.805,6.029,CST-1368DR,5434,7564,14939,0.177,551
2021-06-30T09:36:37,42.805,6.029,CST-1368DR,5434,7566,14943,0.176,551
2021-06-30T09:39:39,42.805,6.029,CST-1368DR,5435,7566,14939,0.177,551
2021-06-30T09:42:41,42.805,6.029,CST-1368DR,5434,7564,14939,0.177,551
2021-06-30T09:45:42,42.805,6.029,CST-1368DR,5435,7566,14939,0.177,551
2021-06-30T09:48:44,42.805,6.029,CST-1368DR,5434,7565,14940,0.177,551
2021-06-30T09:51:45,42.805,6.029,CST-1368DR,5434,7565,14940,0.177,551
2021-06-30T09:54:47,42.805,6.029,CST-1368DR,5435,7565,14937,0.178,551
2021-06-30T09:57:48,42.805,6.029,CST-1368DR,5434,7566,14941,0.177,551
2021-06-30T10:00:50,42.805,6.029,CST-1368DR,5435,7565,14937,0.178,551
2021-06-30T10:03:52,42.805,6.029,CST-1368DR,5434,7565,14941,0.177,551
2021-06-30T10:06:53,42.805,6.029,CST-1368DR,5434,7565,14939,0.177,551
2021-06-30T10:09:55,42.805,6.029,CST-1368DR,5434,7565,14940,0.177,551
2021-06-30T10:12:56,42.805,6.029,CST-1368DR,5434,7564,14938,0.178,551
2021-06-30T10:15:58,42.805,6.029,CST-1368DR,5434,7565,14940,0.177,551
2021-06-30T10:19:00,42.805,6.029,CST-1368DR,5435,7565,14937,0.178,551
2021-06-30T10:22:01,42.805,6.029,CST-1368DR,5434,7564,14938,0.178,551
2021-06-30T10:25:03,42.805,6.029,CST-1368DR,5434,7565,14940,0.177,551
2021-06-30T10:28:04,42.805,6.029,CST-1368DR,5435,7566,14939,0.177,551
2021-06-30T10:31:06,42.805,6.029,CST-1368DR,5434,7565,14940,0.177,551
2021-06-30T10:34:07,42.805,6.029,CST-1368DR,5434,7566,14941,0.177,551
2021-06-30T10:37:09,42.805,6.029,CST-1368DR,5434,7565,14941,0.177,551
2021-06-30T10:40:11,42.805,6.029,CST-1368DR,5435,7565,14938,0.178,550
2021-06-30T10:43:12,42.805,6.029,CST-1368DR,5434,7558,14926,0.181,551
2021-06-30T10:46:14,42.805,6.029,CST-1368DR,5434,7564,14938,0.178,551
2021-06-30T10:49:15,42.805,6.029,CST-1368DR,5434,7564,14938,0.178,551
2021-06-30T10:52:17,42.805,6.029,CST-1368DR,5434,7564,14938,0.178,551
2021-06-30T10:55:19,42.805,6.029,CST-1368DR,5434,7565,14939,0.177,551
2021-06-30T10:58:20,42.805,6.029,CST-1368DR,5434,7563,14936,0.178,551
2021-06-30T11:01:22,42.805,6.029,CST-1368DR,5434,7563,14935,0.178,551
2021-06-30T11:04:23,42.805,6.029,CST-1368DR,5434,7564,14938,0.178,551
2021-06-30T11:07:25,42.805,6.029,CST-1368DR,5434,7564,14937,0.178,551
2021-06-30T11:10:26,42.805,6.029,CST-1368DR,5434,7564,14938,0.178,551
2021-06-30T11:13:28,42.805,6.029,CST-1368DR,5434,7563,14936,0.178,551
2021-06-30T11:16:30,42.805,6.029,CST-1368DR,5434,7565,14939,0.177,551
2021-06-30T11:19:31,42.805,6.029,CST-1368DR,5434,7564,14937,0.178,551
2021-06-30T11:22:33,42.805,6.029,CST-1368DR,5434,7564,14937,0.178,551
2021-06-30T11:25:34,42.805,6.029,CST-1368DR,5434,7564,14937,0.178,551
2021-06-30T11:28:36,42.805,6.029,CST-1368DR,5434,7564,14939,0.177,551
2021-06-30T11:31:37,42.805,6.029,CST-1368DR,5434,7563,14936,0.178,551
2021-06-30T11:34:39,42.805,6.029,CST-1368DR,5434,7563,14936,0.178,551
2021-06-30T11:37:41,42.805,6.029,CST-1368DR,5434,7563,14937,0.178,551
2021-06-30T11:40:42,42.805,6.029,CST-1368DR,5434,7564,14937,0.178,551
2021-06-30T11:43:44,42.805,6.029,CST-1368DR,5434,7563,14936,0.178,551
2021-06-30T11:46:45,42.805,6.029,CST-1368DR,5434,7564,14937,0.178,551
2021-06-30T11:49:47,42.805,6.029,CST-1368DR,5434,7564,14938,0.178,551
2021-06-30T11:52:49,42.805,6.029,CST-1368DR,5434,7563,14937,0.178,551
2021-06-30T11:55:50,42.805,6.029,CST-1368DR,5434,7562,14933,0.179,551
2021-06-30T11:58:52,42.805,6.029,CST-1368DR,5434,7563,14936,0.178,551
2021-06-30T12:01:53,42.805,6.029,CST-1368DR,5434,7565,14940,0.177,551
2021-06-30T12:04:55,42.805,6.029,CST-1368DR,5434,7563,14936,0.178,551
2021-06-30T12:07:56,42.805,6.029,CST-1368DR,5434,7564,14938,0.178,551
2021-06-30T12:10:58,42.805,6.029,CST-1368DR,5434,7564,14938,0.178,551
2021-06-30T12:14:00,42.805,6.029,CST-1368DR,5434,7564,14939,0.177,551
2021-06-30T12:17:01,42.805,6.029,CST-1368DR,5434,7564,14939,0.177,551
2021-06-30T12:20:03,42.805,6.029,CST-1368DR,5434,7564,14937,0.178,551
2021-06-30T12:23:04,42.805,6.029,CST-1368DR,5434,7564,14938,0.178,551
2021-06-30T12:26:06,42.805,6.029,CST-1368DR,5434,7564,14938,0.178,551
2021-06-30T12:29:07,42.805,6.029,CST-1368DR,5434,7564,14938,0.178,551
2021-06-30T12:32:09,42.805,6.029,CST-1368DR,5434,7563,14937,0.178,551
2021-06-30T12:35:11,42.805,6.029,CST-1368DR,5434,7564,14938,0.178,551
2021-06-30T12:38:12,42.805,6.029,CST-1368DR,5434,7561,14932,0.179,551
2021-06-30T12:41:14,42.805,6.029,CST-1368DR,5434,7564,14937,0.178,551
2021-06-30T12:44:15,42.805,6.029,CST-1368DR,5434,7564,14939,0.177,551
2021-06-30T12:47:17,42.805,6.029,CST-1368DR,5434,7563,14936,0.178,551
2021-06-30T12:50:19,42.805,6.029,CST-1368DR,5434,7561,14932,0.179,551
2021-06-30T12:53:20,42.805,6.029,CST-1368DR,5434,7563,14935,0.178,551
2021-06-30T12:56:22,42.805,6.029,CST-1368DR,5434,7564,14938,0.178,551
2021-06-30T12:59:23,42.805,6.029,CST-1368DR,5434,7564,14938,0.178,551
2021-06-30T13:02:25,42.805,6.029,CST-1368DR,5434,7562,14934,0.179,551
2021-06-30T13:05:26,42.805,6.029,CST-1368DR,5434,7564,14937,0.178,551
2021-06-30T13:08:28,42.805,6.029,CST-1368DR,5434,7564,14938,0.178,551
2021-06-30T13:11:30,42.805,6.029,CST-1368DR,5434,7563,14935,0.178,550
2021-06-30T13:14:31,42.805,6.029,CST-1368DR,5434,7564,14937,0.178,551
2021-06-30T13:17:33,42.805,6.029,CST-1368DR,5434,7562,14935,0.178,551
2021-06-30T13:20:34,42.805,6.029,CST-1368DR,5434,7563,14936,0.178,551
2021-06-30T13:23:36,42.805,6.029,CST-1368DR,5434,7564,14937,0.178,551
2021-06-30T13:26:38,42.805,6.029,CST-1368DR,5434,7563,14935,0.178,551
2021-06-30T13:29:39,42.805,6.029,CST-1368DR,5434,7562,14934,0.179,551
2021-06-30T13:32:41,42.805,6.029,CST-1368DR,5434,7564,14937,0.178,551
2021-06-30T13:35:42,42.805,6.029,CST-1368DR,5434,7563,14937,0.178,551
2021-06-30T13:38:44,42.805,6.029,CST-1368DR,5434,7563,14937,0.178,551
2021-06-30T13:41:45,42.805,6.029,CST-1368DR,5434,7563,14936,0.178,551
2021-06-30T13:44:47,42.805,6.029,CST-1368DR,5434,7562,14935,0.178,551
2021-06-30T13:47:49,42.805,6.029,CST-1368DR,5434,7563,14936,0.178,551
2021-06-30T13:50:50,42.805,6.029,CST-1368DR,5434,7563,14935,0.178,551
2021-06-30T13:53:52,42.805,6.029,CST-1368DR,5434,7563,14935,0.178,551
2021-06-30T13:56:53,42.805,6.029,CST-1368DR,5434,7563,14936,0.178,551
2021-06-30T13:59:55,42.805,6.029,CST-1368DR,5434,7562,14935,0.178,551
2021-06-30T14:02:56,42.805,6.029,CST-1368DR,5434,7563,14937,0.178,551
2021-06-30T14:05:58,42.805,6.029,CST-1368DR,5434,7565,14939,0.177,551
2021-06-30T14:09:00,42.805,6.029,CST-1368DR,5434,7564,14939,0.177,551
2021-06-30T14:12:01,42.805,6.029,CST-1368DR,5434,7563,14936,0.178,551
2021-06-30T14:15:03,42.805,6.029,CST-1368DR,5434,7564,14939,0.177,551
2021-06-30T14:18:04,42.805,6.029,CST-1368DR,5434,7563,14937,0.178,551
2021-06-30T14:21:06,42.805,6.029,CST-1368DR,5434,7564,14938,0.178,551
2021-06-30T14:24:08,42.805,6.029,CST-1368DR,5434,7563,14937,0.178,551
2021-06-30T14:27:09,42.805,6.029,CST-1368DR,5434,7562,14935,0.178,551
2021-06-30T14:30:11,42.805,6.029,CST-1368DR,5434,7562,14935,0.178,551
2021-06-30T14:33:12,42.805,6.029,CST-1368DR,5434,7563,14937,0.178,551
2021-06-30T14:36:14,42.805,6.029,CST-1368DR,5434,7563,14937,0.178,551
2021-06-30T14:39:15,42.805,6.029,CST-1368DR,5434,7563,14937,0.178,551
2021-06-30T14:42:17,42.805,6.029,CST-1368DR,5434,7562,14934,0.179,551
2021-06-30T14:45:19,42.805,6.029,CST-1368DR,5434,7564,14937,0.178,551
2021-06-30T14:48:20,42.805,6.029,CST-1368DR,5434,7563,14937,0.178,551
2021-06-30T14:51:22,42.805,6.029,CST-1368DR,5434,7563,14937,0.178,551
2021-06-30T14:54:23,42.805,6.029,CST-1368DR,5434,7564,14938,0.178,551
2021-06-30T14:57:25,42.805,6.029,CST-1368DR,5434,7562,14934,0.179,551
2021-06-30T15:00:27,42.805,6.029,CST-1368DR,5434,7563,14935,0.178,551
2021-06-30T15:03:28,42.805,6.029,CST-1368DR,5434,7562,14934,0.179,551
2021-06-30T15:06:30,42.805,6.029,CST-1368DR,5434,7563,14937,0.178,551
2021-06-30T15:09:31,42.805,6.029,CST-1368DR,5434,7562,14934,0.179,551
2021-06-30T15:12:33,42.805,6.029,CST-1368DR,5434,7563,14935,0.178,551
2021-06-30T15:15:34,42.805,6.029,CST-1368DR,5434,7562,14934,0.179,551
2021-06-30T15:18:36,42.805,6.029,CST-1368DR,5434,7563,14936,0.178,551
2021-06-30T15:21:38,42.805,6.029,CST-1368DR,5434,7563,14935,0.178,551
2021-06-30T15:24:39,42.805,6.029,CST-1368DR,5434,7562,14935,0.178,551
2021-06-30T15:27:41,42.805,6.029,CST-1368DR,5434,7564,14938,0.178,551
2021-06-30T15:30:42,42.805,6.029,CST-1368DR,5434,7563,14937,0.178,551
2021-06-30T15:33:44,42.805,6.029,CST-1368DR,5434,7563,14936,0.178,551
2021-06-30T15:36:45,42.805,6.029,CST-1368DR,5434,7563,14937,0.178,551
2021-06-30T15:39:47,42.805,6.029,CST-1368DR,5434,7564,14937,0.178,551
2021-06-30T15:42:49,42.805,6.029,CST-1368DR,5434,7563,14935,0.178,551
2021-06-30T15:45:50,42.805,6.029,CST-1368DR,5434,7563,14937,0.178,551
2021-06-30T15:48:52,42.805,6.029,CST-1368DR,5434,7563,14937,0.178,551
2021-06-30T15:51:53,42.805,6.029,CST-1368DR,5434,7562,14935,0.178,551
2021-06-30T15:54:55,42.805,6.029,CST-1368DR,5434,7563,14935,0.178,551
2021-06-30T15:57:57,42.805,6.029,CST-1368DR,5434,7562,14934,0.179,551
2021-06-30T16:00:58,42.805,6.029,CST-1368DR,5434,7563,14937,0.178,551
2021-06-30T16:04:00,42.805,6.029,CST-1368DR,5434,7563,14936,0.178,551
2021-06-30T16:07:01,42.805,6.029,CST-1368DR,5434,7563,14935,0.178,551
2021-06-30T16:10:03,42.805,6.029,CST-1368DR,5434,7562,14934,0.179,551
2021-06-30T16:13:04,42.805,6.029,CST-1368DR,5434,7562,14934,0.179,551
2021-06-30T16:16:06,42.805,6.029,CST-1368DR,5434,7563,14936,0.178,551
2021-06-30T16:19:08,42.805,6.029,CST-1368DR,5434,7564,14937,0.178,551
2021-06-30T16:22:09,42.805,6.029,CST-1368DR,5434,7562,14935,0.178,551
2021-06-30T16:25:11,42.805,6.029,CST-1368DR,5434,7563,14935,0.178,551
2021-06-30T16:28:12,42.805,6.029,CST-1368DR,5434,7562,14935,0.178,551
2021-06-30T16:31:14,42.805,6.029,CST-1368DR,5434,7562,14934,0.179,551
2021-06-30T16:34:16,42.805,6.029,CST-1368DR,5434,7564,14938,0.178,551
2021-06-30T16:37:17,42.805,6.029,CST-1368DR,5434,7563,14936,0.178,551
2021-06-30T16:40:19,42.805,6.029,CST-1368DR,5434,7564,14937,0.178,551
2021-06-30T16:43:20,42.805,6.029,CST-1368DR,5434,7563,14935,0.178,551
2021-06-30T16:46:22,42.805,6.029,CST-1368DR,5434,7563,14936,0.178,551
2021-06-30T16:49:23,42.805,6.029,CST-1368DR,5434,7562,14935,0.178,551
2021-06-30T16:52:25,42.805,6.029,CST-1368DR,5434,7561,14932,0.179,551